Weather Roundup
Issued by NWS

Home | Current Version | Previous Version | Text Only | Print | Product List | Glossary On
Versions: 1 2 3 4 5 6 7 8 9 10 11 12 13 14 15 16 17 18 19 20 21 22 23 24 25 26 27 28 29 30 31 32 33 34 35 36 37 38 39 40 41 42 43 44 45 46 47 48 49 50
000
NZUS93 KARX 270159
HRRWXR

CURRENT HOURLY OBSERVATIONS ACROSS
MUCH OF THE UPPER MISSISSIPPI VALLEY
NATIONAL WEATHER SERVICE LA CROSSE WI
900 PM CDT TUE AUG 26 2014


...SOUTHEAST MINNESOTA...


CITY           SKY/WX    TMP DP  RH WIND       PRES   REMARKS
ROCHESTER      MOCLDY    64  57  78 CALM      30.17R
ROCHESTER/MAYO FAIR      67  51  56 CALM      30.16R
WINONA         CLOUDY    68  57  68 CALM      30.15R
AUSTIN         CLOUDY    64  57  77 CALM      30.15S
ALBERT LEA     CLOUDY    64  59  82 CALM      30.15S
DODGE CENTER   MOCLDY    63  61  94 CALM      30.16S
PRESTON        CLOUDY    63  62  96 CALM      30.16S
OWATONNA       MOCLDY    64  57  77 CALM      30.16R
FARIBAULT      MOCLDY    63  57  82 CALM      30.16R
$$

...ELSEWHERE IN MINNESOTA...


CITY           SKY/WX    TMP DP  RH WIND       PRES   REMARKS
MINNEAPOLIS    MOCLDY    69  53  56 NW5       30.14S
INTNL FALLS    CLOUDY    54  47  77 W6        30.16R
DULUTH         PTCLDY    57  49  74 N6        30.15S
RED WING       MOCLDY    64  59  82 CALM      30.14R
REDWOOD FALLS  PTCLDY    66  57  72 CALM      30.15R
MANKATO        PTCLDY    64  54  68 N5        30.15S
WORTHINGTON    CLEAR     61  57  88 E5        30.18R
FAIRMONT       PTCLDY    59  55  88 MISG      30.16R
$$

...SOUTHWEST WISCONSIN...


CITY           SKY/WX    TMP DP  RH WIND       PRES   REMARKS
LA CROSSE      CLOUDY    68  58  70 NW5       30.13R
PRAIRIE DU CHI MOCLDY    68  61  78 CALM      30.12S
BOSCOBEL       PTCLDY    67  61  81 CALM      30.13R
LONE ROCK      NOT AVBL
PLATTEVILLE    CLEAR     69  64  85 NW5       30.13R
FORT MC COY    PTCLDY    62  58  88 CALM      30.15R
VIROQUA        FAIR      63  61  95 CALM      30.15R
WIS DELLS      PTCLDY    65  58  77 CALM      30.13R
$$

...ELSEWHERE IN WISCONSIN...


CITY           SKY/WX    TMP DP  RH WIND       PRES   REMARKS
MILWAUKEE      PTCLDY    69  59  70 N5        30.09S
MADISON        PTCLDY    66  60  81 CALM      30.12R
GREEN BAY      CLEAR     61  58  90 NW6       30.10S
EAU CLAIRE     MOCLDY    64  58  80 W5        30.14R
BLACK RVR FLS  FAIR      62  57  82 CALM      30.14R
MEDFORD        CLEAR     59  54  83 CALM      30.15R
WAUSAU         PTCLDY    63  54  72 W6        30.12R
WIS RAPIDS     PTCLDY    61  57  87 CALM      30.15R
MARSHFIELD     PTCLDY    61  54  77 NW8       30.15R
RICE LAKE      CLOUDY    63  56  78 NW5       30.17R
$$

...NORTHEAST IOWA...


CITY           SKY/WX    TMP DP  RH WIND       PRES   REMARKS
WATERLOO       CLOUDY    69  63  81 NE5       30.11S
DUBUQUE        CLEAR     67  63  87 N3        30.13R
DECORAH        CLOUDY    66  61  82 CALM      30.14R
MASON CITY     CLOUDY    64  62  93 CALM      30.16R
CHARLES CITY   CLOUDY    66  63  88 N5        30.15R
OELWEIN        CLOUDY    70  63  78 N5        30.14R
$$

...ELSEWHERE IN IOWA...


CITY           SKY/WX    TMP DP  RH WIND       PRES   REMARKS
DES MOINES     MOCLDY    74  62  66 E6        30.12R
IOWA CITY      CLEAR     74  66  76 N7        30.12R
FORT DODGE     MOCLDY    66  63  88 CALM      30.15R
MARSHALLTOWN   CLOUDY    69  64  84 NE3       30.13R
CEDAR RAPIDS   CLEAR     70  65  84 N6        30.11R
$$

...NORTHERN ILLINOIS...


CITY           SKY/WX    TMP DP  RH WIND       PRES   REMARKS
CHICAGO-OHARE  PTCLDY    74  65  73 NE7       30.09R
DUPAGE         CLEAR     74  65  73 N6        30.09R
CHICAGO-MIDWAY PTCLDY    75  69  81 E7        30.08R
MOLINE         CLEAR     76  65  68 N3        30.09R
ROCKFORD       PTCLDY    71  63  75 N7        30.12R
STERLING       MOCLDY    75  66  73 CALM      30.11R
PEORIA         CLEAR     80  71  74 NE5       30.08R
$$

NOTE: "FAIR" INDICATES FEW OR NO CLOUDS BELOW 12,000 FEET WITH NO
SIGNIFICANT WEATHER AND/OR OBSTRUCTIONS TO VISIBILITY. WIND
SPEEDS ARE IN MILES-PER-HOUR.



USA.gov is the U.S. government's official web portal to all federal, state and local government web resources and services.